Sign-in with your pilot id or email, or register

ICAO: KPDX Name / Country: Portland International Airport / United States
Latitude: 45.589 Longitude: -122.593
Total Arrivals:
Strict Standards: Non-static method AirportData::getarrflights() should not be called statically, assuming $this from incompatible context in /var/www/customers/vh-7192/web/home/phpvms/core/templates/airport_info.tpl on line 18
1
Total Departures:
Strict Standards: Non-static method AirportData::getdeptflights() should not be called statically, assuming $this from incompatible context in /var/www/customers/vh-7192/web/home/phpvms/core/templates/airport_info.tpl on line 21
1
Latest Arrival: MTA5PM (PANC-KPDX) Tibor Berces Latest Departure: MTATIBI (KPDX-KORD) Tibor Berces
Metar: KPDX 300753Z VRB04KT 10SM BKN100 15/12 A3008 RMK AO2 SLP184 FU BKN100 T01500117 403000122
More info

Charts for KPDX


NOTAM


Warning: file_get_contents(http://api.vateud.net/notams/KPDX.json): failed to open stream: Redirection limit reached, aborting in /var/www/customers/vh-7192/web/home/phpvms/core/common/NOTAMSData.class.php on line 18

Warning: Invalid argument supplied for foreach() in /var/www/customers/vh-7192/web/home/phpvms/core/common/NOTAMSData.class.php on line 22

Portland International Airport